HLE07 EGSR-EGSR

Flight info

Callsign HLE07
Flight time 1h 6m
Altitude 1500
Route VFR HEMS
Aircraft A169/L-V/N

Departure

Time 2026-04-30 13:20
Airport Earls Colne Airfield (EGSR)

Arrival

Time 2026-04-30 14:27
Airport Earls Colne Airfield (EGSR)
Time Latitude Longitude Altitude Speed Heading
2026-04-30 13:19 51.91187 0.67675 228 ft 0 kts 211°
2026-04-30 13:19 51.91187 0.67674 228 ft 1 kts 256°
2026-04-30 13:20 51.91266 0.67793 324 ft 48 kts 64°
2026-04-30 13:20 51.91409 0.68532 574 ft 86 kts 99°
2026-04-30 13:20 51.90951 0.69342 796 ft 116 kts 149°
2026-04-30 13:20 51.90129 0.69460 1137 ft 121 kts 171°
2026-04-30 13:21 51.89251 0.69429 1125 ft 134 kts 171°
2026-04-30 13:21 51.88280 0.69420 1146 ft 143 kts 171°
2026-04-30 13:21 51.87283 0.69427 1202 ft 144 kts 169°
2026-04-30 13:22 51.85287 0.69417 1196 ft 143 kts 169°
2026-04-30 13:22 51.84290 0.69408 1184 ft 143 kts 170°
2026-04-30 13:22 51.82287 0.69443 1153 ft 143 kts 169°
2026-04-30 13:23 51.81289 0.69470 1148 ft 145 kts 169°
2026-04-30 13:23 51.79280 0.69527 1157 ft 144 kts 168°
2026-04-30 13:24 51.77272 0.69571 1174 ft 144 kts 169°
2026-04-30 13:24 51.75264 0.69619 1153 ft 144 kts 169°
2026-04-30 13:25 51.73260 0.69670 1149 ft 144 kts 169°
2026-04-30 13:25 51.71258 0.69720 1161 ft 144 kts 169°
2026-04-30 13:26 51.68248 0.69786 1153 ft 144 kts 169°
2026-04-30 13:26 51.66230 0.69820 1164 ft 145 kts 169°
2026-04-30 13:27 51.64230 0.69852 1166 ft 145 kts 169°
2026-04-30 13:28 51.61198 0.69919 1154 ft 145 kts 169°
2026-04-30 13:28 51.59186 0.69968 1160 ft 144 kts 169°
2026-04-30 13:28 51.58183 0.69989 1158 ft 144 kts 169°
2026-04-30 13:29 51.56230 0.70034 1407 ft 128 kts 167°
2026-04-30 13:29 51.54494 0.69867 1198 ft 112 kts 156°
2026-04-30 13:30 51.54570 0.69699 890 ft 76 kts 164°
2026-04-30 13:31 51.54568 0.70913 818 ft 100 kts 11°
2026-04-30 13:31 51.54285 0.70851 513 ft 79 kts 137°
2026-04-30 13:32 51.53973 0.69419 532 ft 76 kts 328°
2026-04-30 13:32 51.54252 0.69890 434 ft 45 kts 85°
2026-04-30 13:33 51.54269 0.70420 220 ft 11 kts 81°
2026-04-30 13:33 51.54275 0.70464 159 ft 7 kts 86°
2026-04-30 13:34 51.54278 0.70481 115 ft 1 kts 95°
2026-04-30 13:34 51.54276 0.70483 106 ft 0 kts 86°
2026-04-30 13:51 51.54276 0.70485 107 ft 1 kts 83°
2026-04-30 13:51 51.54276 0.70430 205 ft 12 kts 89°
2026-04-30 13:51 51.54288 0.70317 344 ft 11 kts 90°
2026-04-30 13:51 51.54293 0.70357 493 ft 36 kts 90°
2026-04-30 13:52 51.54120 0.70922 862 ft 80 kts 136°
2026-04-30 13:52 51.53501 0.70627 1346 ft 119 kts 215°
2026-04-30 13:52 51.53063 0.69450 1259 ft 140 kts 243°
2026-04-30 13:52 51.53008 0.67757 1320 ft 157 kts 267°
2026-04-30 13:53 51.53041 0.65962 1298 ft 169 kts 268°
2026-04-30 13:53 51.53061 0.64011 1368 ft 176 kts 268°
2026-04-30 13:53 51.53093 0.62060 1431 ft 176 kts 268°
2026-04-30 13:53 51.53125 0.60095 1440 ft 176 kts 265°
2026-04-30 13:54 51.53089 0.58133 1431 ft 176 kts 264°
2026-04-30 13:54 51.53055 0.56168 1420 ft 176 kts 264°
2026-04-30 13:54 51.53021 0.54209 1410 ft 175 kts 264°
2026-04-30 13:54 51.52985 0.52257 1409 ft 175 kts 264°
2026-04-30 13:55 51.52946 0.50277 1397 ft 176 kts 263°
2026-04-30 13:55 51.52908 0.48322 1401 ft 176 kts 264°
2026-04-30 13:55 51.52858 0.46355 1409 ft 175 kts 263°
2026-04-30 13:55 51.52815 0.44415 1401 ft 175 kts 263°
2026-04-30 13:56 51.52760 0.42483 1421 ft 172 kts 263°
2026-04-30 13:56 51.52701 0.40574 1411 ft 171 kts 264°
2026-04-30 13:56 51.52625 0.38674 1387 ft 172 kts 263°
2026-04-30 13:56 51.52546 0.36743 1385 ft 172 kts 263°
2026-04-30 13:57 51.52504 0.34821 1373 ft 173 kts 262°
2026-04-30 13:57 51.52451 0.32915 1454 ft 167 kts 262°
2026-04-30 13:57 51.52400 0.31074 1444 ft 164 kts 263°
2026-04-30 13:57 51.52366 0.29247 1420 ft 161 kts 264°
2026-04-30 13:58 51.52311 0.27438 1411 ft 159 kts 263°
2026-04-30 13:58 51.52245 0.24050 1428 ft 150 kts 262°
2026-04-30 13:58 51.52227 0.22406 1438 ft 144 kts 263°
2026-04-30 13:59 51.52173 0.20803 1398 ft 144 kts 263°
2026-04-30 13:59 51.52130 0.19208 1388 ft 142 kts 264°
2026-04-30 13:59 51.52080 0.17633 1378 ft 142 kts 262°
2026-04-30 13:59 51.52019 0.16041 1379 ft 142 kts 263°
2026-04-30 14:00 51.51985 0.14456 1389 ft 141 kts 263°
2026-04-30 14:00 51.51912 0.11342 1383 ft 143 kts 266°
2026-04-30 14:00 51.51918 0.09750 1383 ft 143 kts 266°
2026-04-30 14:01 51.51924 0.08162 1395 ft 142 kts 266°
2026-04-30 14:01 51.51887 0.06548 1399 ft 142 kts 265°
2026-04-30 14:01 51.51876 0.05000 1419 ft 137 kts 263°
2026-04-30 14:01 51.51853 0.03489 1397 ft 136 kts 263°
2026-04-30 14:02 51.51847 0.01975 1365 ft 135 kts 269°
2026-04-30 14:02 51.51909 0.00474 1319 ft 134 kts 267°
2026-04-30 14:02 51.51938 -0.01016 1241 ft 134 kts 265°
2026-04-30 14:02 51.52023 -0.02513 1135 ft 131 kts 277°
2026-04-30 14:03 51.52146 -0.03939 1061 ft 127 kts 272°
2026-04-30 14:03 51.52233 -0.05323 978 ft 123 kts 270°
2026-04-30 14:03 51.52245 -0.06663 722 ft 110 kts 245°
2026-04-30 14:03 51.51826 -0.07083 670 ft 55 kts 149°
2026-04-30 14:04 51.51699 -0.06753 555 ft 34 kts 81°
2026-04-30 14:04 51.51748 -0.06356 534 ft 38 kts 77°
2026-04-30 14:04 51.51789 -0.05999 413 ft 29 kts 77°
2026-04-30 14:04 51.51800 -0.05860 340 ft 2 kts 108°
2026-04-30 14:05 51.51806 -0.05837 334 ft 1 kts 111°
2026-04-30 14:05 51.51807 -0.05836 329 ft 0 kts 120°
2026-04-30 14:10 51.51806 -0.05892 410 ft 15 kts 97°
2026-04-30 14:10 51.51817 -0.05830 587 ft 43 kts 83°
2026-04-30 14:10 51.52109 -0.05272 931 ft 79 kts 47°
2026-04-30 14:10 51.52555 -0.04907 1231 ft 78 kts 41°
2026-04-30 14:11 51.53070 -0.04431 1412 ft 90 kts 39°
2026-04-30 14:11 51.53627 -0.03868 1458 ft 94 kts 39°
2026-04-30 14:11 51.54174 -0.03245 1206 ft 115 kts 40°
2026-04-30 14:11 51.54905 -0.02389 1264 ft 135 kts 48°
2026-04-30 14:12 51.55451 -0.01146 1228 ft 137 kts 58°
2026-04-30 14:12 51.55971 0.00152 1214 ft 136 kts 59°
2026-04-30 14:12 51.56476 0.01423 1201 ft 136 kts 59°
2026-04-30 14:12 51.56823 0.02286 1193 ft 137 kts 58°
2026-04-30 14:13 51.57507 0.04010 1183 ft 138 kts 59°
2026-04-30 14:13 51.58035 0.05305 1183 ft 138 kts 58°
2026-04-30 14:13 51.58325 0.06732 1186 ft 135 kts 83°
2026-04-30 14:13 51.58405 0.08233 1206 ft 134 kts 84°
2026-04-30 14:14 51.58474 0.09730 1190 ft 134 kts 83°
2026-04-30 14:14 51.58536 0.11222 1191 ft 134 kts 84°
2026-04-30 14:14 51.58600 0.12715 1187 ft 134 kts 84°
2026-04-30 14:14 51.58662 0.14213 1188 ft 133 kts 84°
2026-04-30 14:15 51.58734 0.15682 1199 ft 133 kts 83°
2026-04-30 14:15 51.58818 0.17163 1193 ft 132 kts 83°
2026-04-30 14:15 51.58901 0.18630 1187 ft 132 kts 83°
2026-04-30 14:15 51.58987 0.20118 1187 ft 133 kts 84°
2026-04-30 14:16 51.59314 0.21498 1181 ft 140 kts 54°
2026-04-30 14:16 51.59954 0.22660 1216 ft 139 kts 47°
2026-04-30 14:16 51.60674 0.23714 1197 ft 141 kts 45°
2026-04-30 14:16 51.61402 0.24756 1232 ft 138 kts 45°
2026-04-30 14:17 51.62123 0.25800 1203 ft 139 kts 44°
2026-04-30 14:17 51.62837 0.26825 1198 ft 139 kts 44°
2026-04-30 14:17 51.63576 0.27876 1188 ft 140 kts 45°
2026-04-30 14:17 51.64303 0.28904 1215 ft 138 kts 45°
2026-04-30 14:18 51.65037 0.29912 1204 ft 141 kts 45°
2026-04-30 14:18 51.65754 0.30867 1214 ft 141 kts 45°
2026-04-30 14:18 51.67280 0.32897 1191 ft 144 kts 45°
2026-04-30 14:19 51.68807 0.34966 1208 ft 144 kts 45°
2026-04-30 14:19 51.69577 0.35996 1209 ft 144 kts 45°
2026-04-30 14:19 51.70324 0.37032 1201 ft 142 kts 46°
2026-04-30 14:20 51.71067 0.38077 1188 ft 142 kts 46°
2026-04-30 14:20 51.71821 0.39124 1198 ft 141 kts 45°
2026-04-30 14:20 51.73307 0.41207 1183 ft 144 kts 46°
2026-04-30 14:21 51.74078 0.42269 1191 ft 145 kts 46°
2026-04-30 14:21 51.74842 0.43320 1204 ft 145 kts 46°
2026-04-30 14:21 51.76334 0.45408 1212 ft 141 kts 46°
2026-04-30 14:22 51.77104 0.46455 1204 ft 146 kts 45°
2026-04-30 14:22 51.78658 0.48578 1236 ft 145 kts 45°
2026-04-30 14:22 51.79413 0.49618 1215 ft 145 kts 46°
2026-04-30 14:23 51.80931 0.51727 1210 ft 143 kts 46°
2026-04-30 14:23 51.82475 0.53859 1297 ft 143 kts 44°
2026-04-30 14:24 51.83995 0.55947 1255 ft 141 kts 45°
2026-04-30 14:24 51.84754 0.57001 1184 ft 148 kts 46°
2026-04-30 14:25 51.86254 0.59072 1221 ft 140 kts 45°
2026-04-30 14:25 51.87694 0.61092 1280 ft 128 kts 45°
2026-04-30 14:26 51.89046 0.62859 1031 ft 118 kts 40°
2026-04-30 14:26 51.89672 0.63650 870 ft 110 kts 42°
2026-04-30 14:26 51.90463 0.65405 661 ft 81 kts 60°
2026-04-30 14:27 51.90724 0.66133 554 ft 69 kts 60°
2026-04-30 14:27 51.90937 0.66766 459 ft 58 kts 62°
2026-04-30 14:27 51.91099 0.67273 323 ft 43 kts 59°
2026-04-30 14:28 51.91223 0.67675 240 ft 5 kts 147°
2026-04-30 14:28 51.91192 0.67678 237 ft 1 kts 227°
2026-04-30 14:28 51.91189 0.67676 231 ft 0 kts 217°
2026-04-30 14:32 51.91185 0.67659 237 ft 3 kts 349°
2026-04-30 14:33 51.91284 0.67844 390 ft 52 kts 59°
2026-04-30 14:33 51.91752 0.69584 774 ft 106 kts 86°
2026-04-30 14:33 51.91894 0.70850 1043 ft 117 kts 84°
2026-04-30 14:34 51.92016 0.72129 1222 ft 116 kts 83°
2026-04-30 14:34 51.92128 0.73507 1130 ft 128 kts 84°
2026-04-30 14:34 51.92239 0.74968 1180 ft 131 kts 85°
2026-04-30 14:34 51.92339 0.76413 1214 ft 130 kts 85°
2026-04-30 14:35 51.92499 0.78855 1200 ft 130 kts 85°
2026-04-30 14:35 51.92626 0.80797 1193 ft 131 kts 85°
2026-04-30 14:35 51.92720 0.82251 1179 ft 131 kts 85°
2026-04-30 14:36 51.92815 0.83720 1175 ft 131 kts 85°
2026-04-30 14:36 51.92912 0.85198 1179 ft 131 kts 85°
2026-04-30 14:36 51.93005 0.86658 1194 ft 131 kts 85°
2026-04-30 14:36 51.93101 0.88132 1185 ft 131 kts 85°
2026-04-30 14:37 51.93195 0.89583 1182 ft 130 kts 85°
2026-04-30 14:37 51.93289 0.91059 1168 ft 131 kts 85°
2026-04-30 14:37 51.93385 0.92528 1175 ft 131 kts 85°
2026-04-30 14:37 51.93481 0.93989 1187 ft 130 kts 85°
2026-04-30 14:38 51.93578 0.95429 1179 ft 130 kts 85°
2026-04-30 14:38 51.93681 0.96896 1181 ft 131 kts 85°
2026-04-30 14:38 51.93782 0.98362 1177 ft 131 kts 85°
2026-04-30 14:38 51.93881 0.99832 1178 ft 131 kts 85°
2026-04-30 14:39 51.93972 1.01296 1174 ft 131 kts 86°
2026-04-30 14:39 51.94052 1.02775 1182 ft 130 kts 86°
2026-04-30 14:39 51.94128 1.04224 1189 ft 130 kts 86°
2026-04-30 14:40 51.94288 1.07169 1176 ft 131 kts 86°
2026-04-30 14:40 51.94369 1.08631 1179 ft 130 kts 86°
2026-04-30 14:40 51.94452 1.10079 1188 ft 130 kts 86°
2026-04-30 14:40 51.94534 1.11546 1193 ft 130 kts 86°
2026-04-30 14:41 51.94615 1.13014 1193 ft 130 kts 86°
2026-04-30 14:41 51.94701 1.14466 1190 ft 130 kts 86°
2026-04-30 14:41 51.94785 1.15915 1182 ft 130 kts 86°
2026-04-30 14:41 51.94873 1.17384 1188 ft 130 kts 86°
2026-04-30 14:42 51.94958 1.18840 1186 ft 131 kts 86°
2026-04-30 14:42 51.95045 1.20312 1196 ft 130 kts 86°
2026-04-30 14:42 51.95128 1.21765 1179 ft 130 kts 86°
2026-04-30 14:42 51.95212 1.23223 1191 ft 129 kts 86°
2026-04-30 14:43 51.95293 1.24664 1192 ft 129 kts 86°
2026-04-30 14:43 51.95378 1.26132 1191 ft 129 kts 85°
2026-04-30 14:43 51.95450 1.27547 1215 ft 122 kts 85°
2026-04-30 14:43 51.95507 1.28870 1223 ft 113 kts 86°
2026-04-30 14:44 51.95512 1.30107 1180 ft 109 kts 91°
2026-04-30 14:44 51.95526 1.31341 1058 ft 108 kts 86°
2026-04-30 14:44 51.95591 1.32556 905 ft 110 kts 75°
2026-04-30 14:44 51.96014 1.32410 916 ft 107 kts 228°
2026-04-30 14:45 51.95608 1.32729 617 ft 89 kts 133°
2026-04-30 14:45 51.95484 1.31887 335 ft 105 kts 326°
2026-04-30 14:45 51.95851 1.32246 424 ft 63 kts 86°
2026-04-30 14:45 51.95815 1.32805 249 ft 38 kts 83°
2026-04-30 14:46 51.95811 1.33109 130 ft 16 kts 81°
2026-04-30 14:46 51.95828 1.33242 71 ft 7 kts 86°
2026-04-30 14:46 51.95828 1.33250 60 ft 1 kts 97°
2026-04-30 15:06 51.95829 1.33213 138 ft 12 kts 101°
2026-04-30 15:07 51.95777 1.33552 589 ft 62 kts 114°
2026-04-30 15:07 51.94631 1.32363 1098 ft 145 kts 234°
2026-04-30 15:08 51.93648 1.29276 1139 ft 165 kts 233°
2026-04-30 15:08 51.91728 1.24665 1203 ft 164 kts 224°
2026-04-30 15:09 51.90403 1.21681 1190 ft 164 kts 224°
2026-04-30 15:09 51.89062 1.18680 1205 ft 163 kts 224°
2026-04-30 15:10 51.87734 1.15681 1206 ft 164 kts 224°
2026-04-30 15:11 51.85050 1.09719 1209 ft 164 kts 223°
2026-04-30 15:11 51.83691 1.06750 1216 ft 163 kts 223°
2026-04-30 15:12 51.81655 1.02351 1193 ft 164 kts 223°
2026-04-30 15:13 51.80276 0.99416 1189 ft 165 kts 223°
2026-04-30 15:14 51.77506 0.93519 1204 ft 165 kts 223°
2026-04-30 15:14 51.75456 0.89071 1190 ft 165 kts 224°
2026-04-30 15:16 51.72043 0.81659 1192 ft 165 kts 224°
2026-04-30 15:17 51.69275 0.75704 1186 ft 166 kts 224°
2026-04-30 15:18 51.65795 0.68290 1188 ft 166 kts 225°
2026-04-30 15:19 51.63721 0.63846 1185 ft 166 kts 224°